Weather History for New Philadelphia, OH

Change the Weather History Date:

Sunday, November 25, 2012

  Actual Average Record
Temperature  
Mean Temperature 34 °F 40 °F  
Max Temperature 42 °F 49 °F 69 °F (2001)
Min Temperature 26 °F 31 °F 11 °F (2005)
Degree Days  
Heating Degree Days 31 25  
Month to date heating degree days 613 527  
Since 1 July heating degree days 1125 1026  
Cooling Degree Days 0 0  
Month to date cooling degree days 0 0  
Year to date cooling degree days 981 697  
Moisture  
Dew Point 20 °F    
Average Humidity 63    
Maximum Humidity 81    
Minimum Humidity 45    
Precipitation  
Precipitation T in 0.12 in 2.40 in (2010)
Month to date precipitation 0.60 2.68  
Year to date precipitation 28.31 35.64  
Sea Level Pressure  
Sea Level Pressure 30.01 in    
Wind  
Wind Speed 4 mph (SW)    
Max Wind Speed 15 mph    
Max Gust Speed 22 mph    
Visibility 10 miles    
Events Snow    
T = Trace of Precipitation, MM = Missing Value Source: NWS Daily Summary

Daily Weather History Graph

Daily Weather History Graph

Search for Another Location

Airport:

Trip Planner

Search our weather history database for the weather conditions in past years. The results will help you decide how hot, cold, wet, or windy it might be!

Date:

Astronomy

Nov. 25, 2012 Rise Set
Actual Time 7:23 AM EST 5:01 PM EST
Civil Twilight 6:53 AM EST 5:31 PM EST
Nautical Twilight 6:20 AM EST 6:05 PM EST
Astronomical Twilight 5:47 AM EST 6:37 PM EST
Moon 3:18 PM EST (11/25) 4:36 AM EST (11/25)
Length of Visible Light 10h 37m
Length of Day
9h 37m
Waxing Gibbous, 93% of the Moon is Illuminated
Nov 25
Waxing Gibbous
Nov 28
Full
Dec 6
Last Quarter
Dec 13
New
Dec 20
First Quarter

Hourly Weather History & Observations

Time (EST) Temp. Windchill Dew Point Humidity Pressure Visibility Wind Dir Wind Speed Gust Speed Precip Events Conditions
12:53 AM 30.0 °F 24.1 °F 18.0 °F 61% 30.11 in 10.0 mi WSW 5.8 mph - N/A   Overcast
1:53 AM 30.0 °F 23.2 °F 18.0 °F 61% 30.10 in 10.0 mi West 6.9 mph - N/A   Overcast
2:53 AM 30.0 °F 25.2 °F 18.0 °F 61% 30.10 in 10.0 mi Variable 4.6 mph - N/A   Overcast
3:53 AM 28.9 °F 25.2 °F 18.0 °F 64% 30.09 in 10.0 mi WSW 3.5 mph - N/A   Overcast
4:53 AM 28.9 °F 25.2 °F 18.0 °F 64% 30.08 in 10.0 mi SW 3.5 mph - N/A   Overcast
5:20 AM 28.4 °F 24.6 °F 17.6 °F 64% 30.05 in 10.0 mi SSW 3.5 mph - N/A   Overcast
5:53 AM 28.9 °F 25.2 °F 19.0 °F 67% 30.07 in 10.0 mi Variable 3.5 mph - N/A   Overcast
6:53 AM 28.9 °F 25.2 °F 19.9 °F 69% 30.06 in 9.0 mi South 3.5 mph - 0.00 in Snow Light Snow
7:53 AM 28.9 °F 23.9 °F 19.0 °F 67% 30.04 in 9.0 mi South 4.6 mph - 0.00 in Snow Light Snow
8:53 AM 30.0 °F 22.4 °F 19.0 °F 64% 30.04 in 9.0 mi SSW 8.1 mph - 0.00 in Snow Light Snow
9:53 AM 30.9 °F 22.8 °F 19.0 °F 61% 30.02 in 9.0 mi SSW 9.2 mph - 0.00 in Snow Light Snow
10:53 AM 32.0 °F 24.8 °F 19.9 °F 61% 29.99 in 9.0 mi SSW 8.1 mph - 0.00 in Snow Light Snow
11:53 AM 35.1 °F 29.3 °F 19.9 °F 54% 29.96 in 9.0 mi SW 6.9 mph 18.4 mph 0.00 in Snow Light Snow
12:53 PM 37.0 °F 29.8 °F 19.9 °F 50% 29.93 in 9.0 mi SW 10.4 mph 19.6 mph 0.00 in Snow Light Snow
1:53 PM 39.9 °F 33.4 °F 21.0 °F 47% 29.91 in 10.0 mi WSW 10.4 mph - 0.00 in   Clear
2:53 PM 41.0 °F 36.4 °F 21.0 °F 45% 29.90 in 10.0 mi Variable 6.9 mph - N/A   Clear
3:53 PM 41.0 °F 38.0 °F 21.0 °F 45% 29.91 in 10.0 mi SW 4.6 mph - N/A   Clear
4:53 PM 39.9 °F 37.8 °F 21.9 °F 49% 29.92 in 10.0 mi SW 3.5 mph - N/A   Clear
5:53 PM 36.0 °F - 21.0 °F 55% 29.94 in 10.0 mi Calm Calm - N/A   Clear
6:53 PM 30.0 °F - 21.9 °F 72% 29.96 in 10.0 mi Calm Calm - N/A   Clear
7:53 PM 28.0 °F - 21.9 °F 78% 29.98 in 10.0 mi Calm Calm - N/A   Clear
8:53 PM 27.0 °F - 21.0 °F 78% 29.99 in 10.0 mi Calm Calm - N/A   Clear
9:53 PM 28.0 °F - 21.9 °F 78% 30.00 in 10.0 mi Calm Calm - N/A   Clear
10:53 PM 28.0 °F - 21.9 °F 78% 30.01 in 10.0 mi Calm Calm - N/A   Clear
11:53 PM 27.0 °F - 21.9 °F 81% 30.03 in 10.0 mi Calm Calm - N/A   Clear